Weather in Springfield

United States     39°48′00″N   89°39′23″W
temp.,
°C
wind,
m/s
gust,
m/s
humid.,
%
clouds,
%
prec.,
mm/h
press.,
hPa
HPBL,
m
26 may, thu
thu2601:00+19s51195100 0.0 1007364
04:00+18sse5119892 0.1 1007375
07:00+18se61193100 1.9 1007590
10:00+19sse71186100 0.8 1007795
13:00+21sse587635 2.4 10061033
16:00+22sse6862100 1.3 10041623
19:00+16sw5884100 1.6 1006519
22:00+15sw3587100 0.0 1006281
27 may, fri
fri2701:00+13ssw2394100 0.7 1006184
04:00+13sw2396100 0.9 1007180
07:00+13wsw2496100 1.9 1008192
10:00+15wsw2494100 0.1 1009295
13:00+17nw2489100 0.2 1010543
16:00+15n589299 0.4 1011454
19:00+16nnw258796 0.5 1012463
22:00+15wnw22910 0.1 101336
28 may, sat
sat2801:00+13nw22941 0.1 101319
04:00+12nnw119237 0.0 101410
07:00+13se23905 0.0 1014101
10:00+19sse34711 0.0 1013699
13:00+22s55595 0.0 10131206
16:00+24s67575 0.0 10101094
19:00+22sse597392 0.0 1009396
22:00+18sse615858 0.5 1009416
29 may, sun
sun2901:00+18sse615853 0.5 1009411
04:00+17sse7178774 0.0 1008429
07:00+18s81984100 0.3 1007489
10:00+22s91977100 0.9 1007698
13:00+24s91775100 1.2 1006784
16:00+28sse101670100 0.0 10061048
19:00+26s10187693 0.0 1006776
22:00+25s918775 0.0 1009645
30 may, mon
mon3001:00+23s818834 0.0 1010624
04:00+22s616875 0.0 1011494
07:00+22s616865 0.0 1013471
10:00+27ssw712695 0.0 1014668
13:00+30ssw79595 0.0 10151179
16:00+31s68570 0.0 10141562
19:00+27sse712725 0.0 1015619
22:00+24s616734 0.0 1017499